Theta_e
358 357 357 356 358 354 353 352 356 354 356 353 353 352 352 350 351 348 349 348 348 348 347 347 350 347 348 346 346 345 346 345 347 343 347 350 350 351 349 352 352 351 351
340 341 343 351 347 353 353 352 347 352 353 353 353 351 351 351 351 350 350 348 347 347 348 348 348 348 346 347 347 347 347 346 349 350 346 349 341 354 348 347 353 351 351
336 336 338 337 338 342 346 350 352 352 353 354 351 351 351 351 351 351 349 350 350 350 350 348 348 346 346 347 349 349 347 348 348 347 347 346 347 350 353 353 350 354 353
338 338 339 338 337 339 340 341 341 344 347 350 349 350 351 351 350 351 350 350 349 350 348 348 347 347 347 346 346 345 347 347 350 350 348 346 346 344 347 349 349 350 351
336 339 339 340 340 341 342 342 342 342 341 342 343 346 349 350 350 350 351 350 351 349 349 349 350 350 349 349 349 348 346 347 348 347 346 346 346 348 349 349 350 348 351
339 339 339 340 342 342 342 342 342 342 342 342 342 342 343 341 343 346 350 350 350 350 350 349 348 347 348 350 350 349 345 344 347 349 349 346 345 347 349 347 350 348 349
339 339 338 339 339 338 338 338 338 338 339 340 341 342 342 342 341 339 337 335 339 344 348 349 349 352 350 348 348 346 346 343 345 344 343 343 345 345 347 350 349 348 350
338 337 337 337 337 336 337 337 338 338 338 338 338 338 339 339 339 338 337 335 337 336 338 342 347 349 348 348 350 350 350 349 345 344 344 343 341 342 345 347 344 345 345
335 336 336 335 335 335 335 336 336 336 337 338 338 338 338 338 338 337 338 339 338 337 336 337 339 343 345 347 347 347 347 348 349 347 346 345 343 343 346 350 349 346 349
335 335 334 330 328 331 331 333 333 334 334 335 336 337 337 336 336 337 336 337 337 337 336 336 336 337 337 338 345 348 349 348 347 346 348 348 347 343 344 345 347 348 348
329 328 325 328 326 325 328 330 328 327 329 332 334 332 332 330 331 335 335 334 336 337 337 336 336 337 337 337 337 337 336 339 347 348 347 345 348 348 347 346 343 344 347
327 326 326 324 326 327 326 327 327 326 329 329 329 329 330 333 334 335 336 336 335 335 335 335 336 336 337 337 336 337 337 337 340 346 346 345 345 344 345 351 347 344 340
324 324 324 324 328 328 327 327 328 327 327 327 327 327 328 330 330 330 332 333 334 335 335 336 334 333 335 336 336 336 336 336 336 336 340 344 343 342 342 345 347 347 346
324 326 324 324 325 326 326 327 328 327 328 328 330 327 328 328 329 331 333 333 332 333 334 334 335 332 331 331 332 334 336 334 332 338 340 341 343 342 342 343 342 344 346
324 323 324 324 324 326 326 324 325 324 325 324 325 326 326 327 328 328 327 327 327 327 328 330 331 333 336 336 337 337 336 334 335 337 341 341 342 341 342 342 342 340 335
322 323 323 322 323 323 322 324 323 323 323 324 324 324 325 325 326 327 327 327 327 328 328 328 330 332 333 334 334 336 335 336 335 337 339 339 339 340 341 341 341 340 340
319 320 321 321 323 322 322 320 320 322 322 322 322 321 321 324 324 324 325 326 326 325 328 329 329 332 333 333 333 335 335 334 335 336 337 338 338 339 338 339 339 339 340
321 320 320 321 321 321 320 320 320 320 321 321 321 319 318 320 321 322 325 325 323 326 327 327 330 331 332 332 333 333 334 335 334 337 338 338 337 337 337 338 339 338 337
318 318 316 319 320 319 319 318 317 318 319 319 318 318 318 321 322 321 323 323 323 324 323 325 329 331 332 332 332 332 333 334 334 335 337 337 338 337 338 339 338 337 338
315 314 312 315 315 315 316 316 317 316 315 315 315 315 316 319 319 319 320 320 320 321 323 324 325 328 329 332 332 332 333 332 334 335 335 335 336 337 339 338 339 339 339
313 313 312 313 313 313 312 313 314 315 315 314 313 314 315 315 314 314 315 317 318 318 320 322 326 327 330 331 332 332 331 333 332 333 335 336 335 336 336 336 337 338 338
312 312 312 312 311 311 311 312 313 312 313 314 313 312 310 312 313 314 314 315 315 315 316 317 320 323 327 326 328 329 331 332 333 333 333 334 335 333 334 336 336 337 337
312 312 312 311 311 310 310 311 311 311 311 312 312 312 311 308 308 309 312 314 314 314 315 315 317 319 320 321 322 325 326 328 330 331 330 331 332 334 334 334 336 334 334
312 312 312 312 312 312 311 310 310 310 310 311 311 311 310 310 309 306 306 308 309 311 312 313 314 315 317 317 318 318 322 324 325 328 330 330 330 330 331 332 333 332 333
313 312 312 313 313 312 312 311 311 310 309 309 309 310 309 309 308 307 304 304 306 309 307 307 308 309 311 313 316 317 319 318 318 321 326 328 329 330 331 331 331 330 331
313 313 313 313 312 312 312 312 311 311 310 309 309 309 309 309 308 308 307 307 308 308 308 308 308 307 307 308 308 309 314 316 319 320 322 324 326 327 328 328 327 328 329
Wind_Speed
1 3 4 5 5 7 7 7 8 8 9 10 13 13 13 15 16 19 20 22 19 19 18 17 16 16 14 14 13 14 14 15 16 13 8 13 15 13 12 11 15 16 21
7 6 6 5 8 3 6 8 10 9 12 10 12 14 15 15 15 18 20 20 22 22 20 19 19 18 21 19 18 18 14 18 17 17 21 16 19 11 12 11 13 14 17
7 6 6 5 3 4 5 5 7 9 10 10 13 16 16 16 18 18 20 21 22 23 23 22 22 22 25 22 20 19 19 20 16 19 21 17 14 14 12 10 14 16 19
5 6 6 6 5 5 5 5 4 6 8 11 13 15 17 17 19 21 22 22 22 23 24 25 25 26 30 29 27 26 25 22 16 19 19 19 17 16 17 18 19 19 21
4 6 7 8 7 7 7 7 7 7 8 9 11 11 14 15 18 20 21 24 26 27 28 28 26 28 29 28 28 27 25 25 23 23 23 21 21 19 18 22 21 19 23
6 7 8 9 9 9 10 11 12 12 12 12 12 13 13 13 14 13 18 22 23 25 27 29 32 31 30 33 31 32 30 27 30 28 23 23 24 24 22 23 18 18 25
8 10 11 11 12 13 13 14 14 14 15 15 15 16 17 17 18 21 24 23 18 20 24 26 28 26 28 31 30 28 31 33 36 35 35 34 26 27 25 25 25 23 21
10 11 11 11 13 14 14 14 14 14 14 15 16 17 20 20 21 23 25 26 23 24 24 24 26 29 31 33 31 32 32 33 37 41 42 40 37 35 30 29 27 27 28
10 9 10 12 13 13 14 15 15 16 15 15 16 17 19 20 21 22 25 23 24 26 26 27 27 28 28 29 32 35 36 37 30 31 33 38 41 37 29 26 29 29 24
8 9 11 14 14 14 15 15 16 15 16 16 17 17 19 22 22 22 23 23 25 26 27 28 29 30 28 32 30 33 37 40 40 36 32 34 31 33 33 36 32 28 26
10 13 14 15 18 17 15 17 20 19 19 18 19 21 22 24 23 19 20 21 22 24 25 25 24 27 29 29 28 28 36 35 32 34 37 37 32 34 35 39 42 40 34
11 13 13 14 13 13 15 17 19 18 17 20 21 21 19 16 17 17 16 19 22 22 23 26 28 29 29 27 28 29 32 30 31 36 29 34 38 39 35 38 34 34 41
11 13 13 13 14 13 14 15 16 15 16 18 19 19 18 16 16 16 16 22 21 21 24 23 30 35 35 35 36 35 36 37 34 34 38 38 36 37 40 40 35 39 36
9 10 11 11 12 12 13 11 13 14 15 16 15 17 20 20 18 15 16 18 23 22 24 25 22 25 29 30 33 32 33 37 35 31 32 35 34 35 41 40 42 40 35
8 10 11 11 13 14 14 15 15 14 15 21 20 20 20 21 18 22 26 26 26 27 31 33 29 27 26 25 26 26 27 31 31 30 33 34 37 33 33 32 35 39 37
8 7 9 10 11 13 13 14 13 14 16 11 12 15 17 18 23 26 27 28 29 30 31 33 28 26 27 29 30 29 28 27 31 29 26 24 26 30 35 36 29 30 33
9 9 9 10 10 12 14 15 17 16 17 17 16 17 18 21 25 28 32 30 29 30 32 33 27 26 27 28 30 30 30 29 26 27 31 30 26 25 25 30 34 34 34
8 14 9 9 9 11 11 13 13 15 15 13 13 15 19 20 21 21 23 24 18 18 23 23 25 28 30 30 28 30 29 29 27 28 27 29 23 26 26 28 30 31 32
7 7 10 8 10 12 11 13 13 14 14 15 16 17 25 26 22 23 20 18 18 18 17 20 23 28 31 30 30 31 32 31 30 28 26 28 27 28 29 28 30 30 31
6 10 11 8 9 9 10 11 13 13 16 16 17 22 28 26 26 28 25 21 18 17 18 19 21 22 25 27 32 28 30 30 28 26 29 30 29 28 28 28 30 32 33
6 7 11 8 9 10 11 11 12 13 14 16 17 18 21 24 26 27 27 24 23 22 21 22 20 21 23 20 23 24 29 27 26 27 22 23 25 27 30 32 35 35 34
8 8 9 9 10 10 11 11 12 13 14 14 15 17 21 18 22 25 26 26 24 22 21 21 22 19 21 16 25 21 22 24 23 20 24 23 20 26 29 31 29 29 32
8 9 9 10 11 11 11 11 12 13 14 14 15 16 17 20 20 23 24 25 25 24 23 23 21 21 20 19 18 18 20 24 28 23 26 26 26 24 27 29 28 30 32
7 9 9 10 12 12 12 12 12 13 14 13 14 15 15 17 18 21 22 21 23 25 25 25 25 24 22 22 20 20 19 24 27 29 30 31 31 30 34 34 35 39 35
7 8 8 10 11 13 14 14 13 13 14 13 14 14 15 15 16 18 22 22 20 22 25 26 27 27 27 26 23 22 21 20 22 22 24 29 33 35 37 39 38 31 32
8 7 9 9 11 12 13 15 16 14 14 13 14 14 13 15 16 16 20 22 21 20 21 23 24 25 28 29 30 27 23 24 24 24 25 25 24 24 25 27 29 30 33
Wind_Direction
247 266 260 247 270 277 270 258 277 255 237 236 234 228 239 233 227 228 227 223 240 242 243 240 249 249 248 255 258 263 267 274 282 271 254 245 245 245 214 237 261 251 247
78 63 44 18 356 321 281 270 263 258 264 258 245 243 240 236 242 241 234 232 240 236 239 242 243 249 255 253 255 257 260 260 272 274 262 271 288 222 283 243 246 255 261
74 55 37 26 1 333 326 324 319 279 264 267 271 267 252 242 239 239 243 243 237 239 244 248 249 246 247 241 242 250 256 252 259 260 270 275 267 263 260 269 269 263 262
53 38 18 4 350 339 338 326 315 305 303 301 286 268 261 254 247 243 242 245 243 245 245 244 245 247 253 250 245 245 244 249 253 256 261 268 269 266 258 264 274 272 259
3 0 351 340 330 325 319 315 314 305 297 292 289 289 296 282 266 259 254 252 251 249 245 246 247 247 252 257 256 254 253 242 243 250 251 257 257 261 255 247 254 254 262
335 334 328 324 319 317 310 306 302 299 292 287 283 281 281 274 281 285 273 272 268 262 259 256 251 245 248 250 250 255 255 247 238 238 252 250 248 249 253 265 255 267 262
314 315 316 314 311 310 306 303 299 293 287 283 279 277 274 272 269 266 267 271 273 271 274 269 260 255 256 260 258 260 254 246 242 245 248 244 248 256 243 247 249 253 264
306 308 308 312 312 311 311 309 306 302 295 289 284 277 273 272 272 272 275 276 273 270 265 263 269 266 254 247 253 250 252 256 249 245 248 253 248 244 250 251 251 255 258
304 304 309 307 305 302 304 303 301 299 295 293 290 288 286 285 283 278 274 272 271 270 270 267 261 261 266 264 255 255 253 252 251 261 260 259 257 245 245 249 247 249 255
301 308 297 293 299 302 299 298 290 288 293 289 285 281 280 282 283 282 277 275 274 273 273 273 274 272 277 257 257 258 258 256 252 249 254 256 255 253 246 239 244 243 243
302 299 310 313 303 308 307 291 291 297 294 293 292 295 294 285 279 281 287 284 278 274 272 271 269 272 275 275 273 272 262 264 257 255 255 249 249 244 245 247 243 238 241
314 313 305 310 313 305 311 314 311 311 307 313 308 310 306 306 301 296 292 287 286 284 280 270 262 263 269 270 270 266 270 271 262 250 252 246 243 248 247 249 250 251 244
320 318 320 320 324 322 315 326 324 318 303 305 307 308 313 312 296 281 277 284 279 274 277 274 265 261 257 261 264 268 272 269 266 259 251 251 251 254 250 240 249 256 244
335 334 332 327 322 329 318 315 308 315 310 293 294 303 303 305 305 308 296 302 289 286 287 283 281 278 271 265 258 258 267 264 261 253 251 252 256 259 250 247 245 256 253
333 340 341 337 334 332 325 322 318 311 297 293 295 294 301 303 303 291 287 287 284 278 273 273 278 276 276 272 265 260 259 263 267 260 252 247 247 243 250 252 255 258 259
351 345 339 338 335 334 334 334 330 314 314 317 312 299 296 293 285 286 287 287 286 284 278 274 273 271 270 271 271 270 272 262 261 257 248 248 252 255 248 247 249 250 260
350 346 341 351 343 341 342 344 343 350 355 357 352 337 311 290 291 294 291 290 285 284 275 273 273 272 272 270 268 275 273 272 269 250 253 249 253 253 255 254 252 245 249
348 351 357 338 340 342 342 346 350 351 351 352 335 326 318 323 331 319 318 310 309 300 294 287 273 272 273 272 269 266 266 269 267 254 256 254 243 254 255 255 254 252 253
341 334 343 334 337 343 348 346 349 351 346 347 352 352 351 354 345 347 339 336 335 323 307 285 281 278 274 273 272 269 265 264 262 262 254 254 257 252 254 255 257 258 261
340 334 355 346 338 335 335 340 343 345 345 350 357 354 353 353 360 0 359 351 342 331 323 308 302 295 283 282 274 270 272 268 264 266 264 260 258 256 254 255 256 259 262
355 342 350 345 343 341 344 347 344 345 346 351 355 343 360 8 7 5 4 1 356 349 341 326 310 299 302 290 282 278 281 257 267 272 267 267 268 267 266 265 262 261 263
359 352 346 344 344 344 344 346 342 345 347 350 349 345 360 5 8 12 13 7 6 3 358 354 339 319 294 307 284 292 283 276 272 261 265 261 264 272 264 260 263 266 269
347 356 357 354 351 352 345 343 344 347 348 347 348 345 350 357 2 6 7 11 10 8 5 8 9 5 353 335 313 297 290 277 275 271 263 267 265 268 274 270 266 274 282
341 351 353 354 354 358 349 348 343 345 349 346 344 344 349 353 353 355 9 9 12 14 12 9 10 7 1 354 349 345 326 305 290 277 276 276 272 267 267 271 272 275 277
322 331 341 346 349 352 353 350 344 340 343 345 344 346 349 353 353 353 3 8 11 360 9 15 15 12 6 5 359 350 335 326 334 323 293 281 276 273 272 273 277 273 273
301 310 321 329 336 339 344 346 346 340 337 339 342 344 348 348 351 354 358 359 1 3 357 358 358 2 11 12 8 2 353 350 345 344 328 308 294 283 280 278 274 271 275